Regional Weather Roundup
Issued by NWS State College, PA

Home | Current Version | Previous Version | Text Only | Print | Product List | Glossary On
Versions: 1 2 3 4 5 6 7 8 9 10 11 12 13 14 15 16 17 18 19 20 21 22 23 24 25 26 27 28 29 30 31 32 33 34 35 36 37 38 39 40 41 42 43 44 45 46 47 48 49 50
000
ASUS41 KCTP 011703
RWRCTP

REGIONAL WEATHER ROUNDUP
NATIONAL WEATHER SERVICE STATE COLLEGE PA
100 PM EDT SAT AUG 01 2015

Note: "fair" indicates few or no clouds below 12,000 feet with no
significant weather and/or obstructions to visibility.

* = STATION THAT DOES NOT REPORT PRECIPITATION /E.G. RAIN...SNOW...ETC/
    THUNDER OR FOG.

PAZ002>004-007>009-013>016-020>023-029>032-011800-
WESTERN PENNSYLVANIA

CITY           SKY/WX    TMP DP  RH WIND       PRES   REMARKS
ERIE           SUNNY     78  59  51 W10       29.92F
MEADVILLE      MOSUNNY   77  52  41 W8        29.94F
FRANKLIN*      PTSUNNY   75  54  46 NW8       29.95F
NEW CASTLE     PTSUNNY   82  59  45 SW8       29.94F
BEAVER COUNTY  NOT AVBL
BUTLER*        MOSUNNY   79  55  44 W7        29.97S
PITTSBURGH INT PTSUNNY   80  54  40 W10       29.95F
PITTSBURGH     MOSUNNY   79  49  34 W9        29.94F
INDIANA*       PTSUNNY   79  57  47 NW10G16   29.97F
LATROBE        PTSUNNY   79  54  41 NW9       29.96F
WASHINGTON CO* NOT AVBL
$$

PAZ004>006-010>012-017>019-024>028-033>037-041-042-045-046-049>053-011800-
CENTRAL PENNSYLVANIA

CITY           SKY/WX    TMP DP  RH WIND       PRES   REMARKS
BRADFORD       PTSUNNY   71  52  50 NW14      29.94F
DUBOIS         PTSUNNY   76  56  49 NW7       29.94F
CLEARFIELD     PTSUNNY   80  54  40 W14G20    29.94S
JOHNSTOWN      MOSUNNY   72  52  49 W12       29.98F
ALTOONA        SUNNY     79  57  46 W8        29.95F
STATE COLLEGE  PTSUNNY   75  57  53 W8        29.92S
WILLIAMSPORT   PTSUNNY   81  53  37 W8G17     29.85S
SELINSGROVE    PTSUNNY   82  59  45 NW8       29.87F
FT INDIANTOWN  MOSUNNY   82  55  39 W10       29.87F
CAPITAL CITY   MOSUNNY   86  49  27 NW13      29.87S
HARRISBURG     MOSUNNY   86  53  32 W13G21    29.86F
YORK           PTSUNNY   82  61  48 VRB5      29.89S
$$

PAZ038>040-043-044-047-048-054-055-060>062-067>071-011800-
EASTERN PENNSYLVANIA

CITY           SKY/WX    TMP DP  RH WIND       PRES   REMARKS
SCRANTON       MOSUNNY   80  59  48 W6        29.86S
MOUNT POCONO   CLOUDY    74  57  55 N6        29.90S
ALLENTOWN      SUNNY     84  61  45 W13G20    29.84S
QUAKERTOWN*    MOSUNNY   84  59  42 W8G18     29.87S
READING        MOSUNNY   85  55  35 W16       29.85S
LANCASTER      PTSUNNY   83  59  44 W16       29.87S
COATESVILLE    SUNNY     82  63  51 W10       29.90R
POTTSTOWN      MOSUNNY   83  62  49 W7        29.87S
BLUE BELL      SUNNY     86  61  42 W5        29.85S
DOYLESTOWN     SUNNY     85  58  39 W10G16    29.85S
WILLOW GROVE   NOT AVBL
NORTH PHILA    MOSUNNY   91  50  24 W13G25    29.85F
PHILADELPHIA   MOSUNNY   88  53  30 W15       29.86S
$$


USA.gov is the U.S. government's official web portal to all federal, state and local government web resources and services.